Terminal Aerodrome Forecast
Issued by NWS Duluth, MN

Home | Current Version | Previous Version | Text Only | Print | Product List | Glossary On
Versions: 1 2 3 4 5 6 7 8 9 10 11 12 13 14 15 16 17
000
FTUS43 KDLH 251700
TAFDLH
TAF
KDLH 251726Z 2518/2618 08012G20KT P6SM BKN070
     FM252200 09011KT P6SM SKC
     FM260300 07005KT P6SM SKC=

USA.gov is the U.S. government's official web portal to all federal, state and local government web resources and services.